EW6098 Weather Reports


time (UTC)temp
F
wind
direction
speed
knots
gust
knots
rain 1hr
in
rain 24hr
in
rain mn
in
humidity
%
barometer
mb
20260508163523 60 31 0.9 5.2 0.00 0.00 0.00 52 1016.7
20260508162553 60 301 0.9 3.5 0.00 0.00 0.00 53 1016.7
20260508161521 61 329 0.9 3.5 0.00 0.00 0.00 52 1016.7
20260508160550 60 307 0.9 2.6 0.00 0.00 0.00 53 1016.6
20260508155558 60 337 0.9 3.5 0.00 0.00 0.00 53 1016.6
20260508154527 61 332 0.9 1.7 0.00 0.00 0.00 53 1016.4
20260508153535 61 341 1.7 3.5 0.00 0.00 0.00 51 1016.4
20260508152524 61 4 0.9 3.5 0.00 0.00 0.00 52 1016.4
20260508151533 61 296 1.7 3.5 0.00 0.00 0.00 52 1016.5
20260508150523 61 353 0.9 3.5 0.00 0.00 0.00 51 1016.4
20260508145531 63 336 1.7 5.2 0.00 0.00 0.00 50 1016.3
20260508144520 61 343 0.9 2.6 0.00 0.00 0.00 51 1016.3
20260508143527 62 281 1.7 6.1 0.00 0.00 0.00 52 1016.3
20260508142516 63 243 1.7 5.2 0.00 0.00 0.00 51 1016.3
20260508141524 62 343 0.9 3.5 0.00 0.00 0.00 53 1016.3
20260508140533 62 273 1.7 6.1 0.00 0.00 0.00 52 1016.3
20260508135521 62 309 1.7 5.2 0.00 0.00 0.00 52 1016.4
20260508134530 62 17 1.7 3.5 0.00 0.00 0.00 54 1016.2
20260508133518 62 213 1.7 3.5 0.00 0.00 0.00 54 1016.1
20260508132526 61 42 1.7 5.2 0.00 0.00 0.00 55 1016.2
20260508131535 61 305 1.7 3.5 0.00 0.00 0.00 54 1016.1
20260508130523 61 332 1.7 5.2 0.00 0.00 0.00 55 1016.1
20260508125532 61 334 0.9 2.6 0.00 0.00 0.00 55 1015.9
20260508124521 61 351 1.7 3.5 0.00 0.00 0.00 53 1015.9
20260508123529 60 294 1.7 3.5 0.00 0.00 0.00 55 1015.8
20260508122517 60 314 1.7 3.5 0.00 0.00 0.00 55 1015.9
20260508121526 60 317 0.9 1.7 0.00 0.00 0.00 54 1015.8
20260508120535 59 23 1.7 3.5 0.00 0.00 0.00 57 1015.8
20260508115523 59 11 1.7 3.5 0.00 0.00 0.00 57 1015.9
20260508114531 61 341 1.7 3.5 0.00 0.00 0.00 56 1015.8
20260508113519 60 320 1.7 5.2 0.00 0.00 0.00 58 1015.7
20260508112527 60 39 0.9 2.6 0.00 0.00 0.00 59 1015.7
20260508111515 59 344 1.7 3.5 0.00 0.00 0.00 61 1015.7
20260508110524 59 24 0.9 2.6 0.00 0.00 0.00 62 1015.8
20260508105552 57 325 0.9 3.5 0.00 0.00 0.00 65 1015.7
20260508104521 56 297 0.9 2.6 0.00 0.00 0.00 65 1015.7
20260508103529 57 12 0.9 3.5 0.00 0.00 0.00 63 1015.6
20260508102518 59 42 1.7 3.5 0.00 0.00 0.00 62 1015.5
20260508101527 58 325 0.9 3.5 0.00 0.00 0.00 63 1015.6
20260508100535 56 285 1.7 5.2 0.00 0.00 0.00 68 1015.4
20260508095524 55 277 1.7 2.6 0.00 0.00 0.00 69 1015.5
20260508094552 54 296 0.9 3.5 0.00 0.00 0.00 69 1015.3
20260508093519 55 71 1.7 3.5 0.00 0.00 0.00 68 1015.3
20260508092548 55 324 0.9 3.5 0.00 0.00 0.00 67 1015.3
20260508091517 56 353 0.9 5.2 0.00 0.00 0.00 67 1015.2
20260508090525 56 101 1.7 2.6 0.00 0.00 0.00 68 1015.2
20260508085534 56 332 1.7 2.6 0.00 0.00 0.00 70 1015.1
20260508084520 55 336 0.9 5.2 0.00 0.00 0.00 72 1015.1
20260508083529 55 347 0.9 1.7 0.00 0.00 0.00 73 1015.0
20260508082518 54 5 0.9 1.7 0.00 0.00 0.00 76 1015.0
20260508081526 54 358 0.9 3.5 0.00 0.00 0.00 76 1014.9
20260508080534 53 326 0.9 3.5 0.00 0.00 0.00 77 1014.7
20260508075523 52 296 0.9 2.6 0.00 0.00 0.00 80 1014.6
20260508074531 52 5 0.9 2.6 0.00 0.00 0.00 81 1014.5
20260508073520 52 310 0.9 3.5 0.00 0.00 0.00 81 1014.4
20260508072528 51 321 0.9 2.6 0.00 0.00 0.00 81 1014.3
20260508071516 51 353 0.9 5.2 0.00 0.00 0.00 82 1014.1
20260508070525 51 351 0.9 2.6 0.00 0.00 0.00 82 1014.1
20260508065533 51 290 0.9 5.2 0.00 0.00 0.00 82 1013.9
20260508064522 52 15 0.9 3.5 0.00 0.00 0.00 82 1013.8
20260508063530 51 57 0.9 2.6 0.00 0.00 0.00 85 1013.7
20260508062539 50 20 0.0 1.7 0.00 0.00 0.00 86 1013.7
20260508061548 49 0.0 0.0 0.00 0.00 0.00 88 1013.5
20260508060517 49 338 0.0 0.9 0.00 0.00 0.00 88 1013.5
20260508055526 48 357 0.0 0.9 0.00 0.00 0.00 88 1013.3
20260508054535 48 8 0.0 0.9 0.00 0.00 0.00 88 1013.1
20260508053523 48 0.0 0.0 0.00 0.00 0.00 88 1012.9
20260508052531 48 0.0 0.0 0.00 0.00 0.00 88 1012.8
20260508051519 47 344 0.0 1.7 0.00 0.00 0.00 88 1012.8
20260508050527 47 324 0.0 0.9 0.00 0.00 0.00 87 1012.8
20260508045555 47 8 0.0 0.9 0.00 0.00 0.00 87 1012.8
20260508044603 47 345 0.0 0.9 0.00 0.00 0.00 88 1012.6
20260508043550 47 0.0 0.0 0.00 0.00 0.00 88 1012.6
20260508042518 47 0.0 0.0 0.00 0.00 0.00 88 1012.6
20260508041546 47 0.0 0.0 0.00 0.00 0.00 87 1012.5
20260508040535 47 0.0 0.0 0.00 0.00 0.00 86 1012.4
20260508035523 47 324 0.0 0.9 0.00 0.00 0.00 86 1012.3
20260508034531 48 346 0.0 0.9 0.00 0.00 0.00 85 1012.4
20260508033518 48 336 0.9 1.7 0.00 0.00 0.00 84 1012.3
20260508032527 49 327 0.9 1.7 0.00 0.00 0.00 83 1012.3
20260508031535 49 333 0.9 1.7 0.00 0.00 0.00 82 1012.3
20260508030523 49 5 0.9 2.6 0.00 0.00 0.00 82 1012.3
20260508025531 49 353 0.9 1.7 0.00 0.00 0.00 81 1012.2
20260508024519 49 159 0.9 3.5 0.00 0.00 0.00 80 1012.1
20260508023528 49 300 0.9 5.2 0.00 0.00 0.00 80 1012.1
20260508022516 49 295 0.9 1.7 0.00 0.00 0.00 79 1012.1
20260508021524 49 271 1.7 6.1 0.00 0.00 0.00 79 1012.0
20260508020532 49 244 0.9 2.6 0.00 0.00 0.00 78 1012.0
20260508015520 49 324 0.9 2.6 0.00 0.00 0.00 78 1012.0
20260508014528 49 325 1.7 2.6 0.00 0.00 0.00 77 1012.0
20260508013536 49 282 0.9 2.6 0.00 0.00 0.00 78 1012.2
20260508012524 48 326 0.0 1.7 0.00 0.00 0.00 81 1012.1
20260508011533 48 6 0.0 0.9 0.00 0.00 0.00 81 1012.0
20260508010521 49 6 0.9 2.6 0.00 0.00 0.00 81 1012.0
20260508005529 48 9 0.0 1.7 0.00 0.00 0.00 80 1012.1
20260508004518 49 0.0 0.0 0.00 0.00 0.00 80 1012.0
20260508003527 49 304 0.9 1.7 0.00 0.00 0.00 80 1012.1
20260508002536 48 298 0.9 2.6 0.00 0.00 0.00 80 1012.1
20260508001523 49 356 0.0 0.9 0.00 0.00 0.00 81 1012.2
20260508000531 48 33 0.0 0.9 0.00 0.00 0.00 81 1012.1
20260507235519 49 329 0.0 0.9 0.00 0.00 0.00 81 1012.1
20260507234548 49 319 0.0 0.9 0.00 0.00 0.00 81 1012.0
20260507233536 49 264 0.9 3.5 0.00 0.00 0.00 81 1012.1
20260507232544 49 311 0.9 1.7 0.00 0.00 0.00 82 1012.1
20260507231532 48 317 0.0 0.9 0.00 0.00 0.00 83 1012.1
20260507230520 48 333 0.0 0.9 0.00 0.00 0.00 83 1012.1
20260507225528 48 0.0 0.0 0.00 0.00 0.00 83 1012.1
20260507224517 48 319 0.0 1.7 0.00 0.00 0.00 83 1012.1
20260507223526 49 339 0.0 0.9 0.00 0.00 0.00 82 1012.1
20260507222534 49 11 0.0 1.7 0.00 0.00 0.00 82 1012.0
20260507221522 48 0.0 0.0 0.00 0.00 0.00 83 1012.0
20260507220531 48 322 0.0 1.7 0.00 0.00 0.00 83 1012.0
20260507215519 48 0.0 0.0 0.00 0.00 0.00 83 1012.1
20260507214548 49 0.0 0.0 0.00 0.00 0.00 82 1012.0
20260507213516 49 333 0.0 1.7 0.00 0.00 0.00 82 1012.0
20260507212525 49 329 0.0 0.9 0.00 0.00 0.00 81 1012.1
20260507211533 49 335 0.0 1.7 0.00 0.00 0.00 80 1012.0
20260507210522 50 0.0 0.0 0.00 0.00 0.00 78 1012.1
20260507205530 51 345 0.0 1.7 0.00 0.00 0.00 76 1012.0
20260507204518 52 263 0.9 5.2 0.00 0.00 0.00 75 1011.9
20260507203546 52 22 0.0 0.9 0.00 0.00 0.00 74 1011.9
20260507202535 53 281 0.9 2.6 0.00 0.00 0.00 73 1011.7
20260507201524 53 284 1.7 6.1 0.00 0.00 0.00 73 1011.7
20260507200553 53 252 1.7 6.1 0.00 0.00 0.00 72 1011.5
20260507195601 53 263 1.7 5.2 0.00 0.00 0.00 72 1011.5
20260507194530 53 214 1.7 3.5 0.00 0.00 0.00 72 1011.5
20260507193518 53 264 1.7 3.5 0.00 0.00 0.00 71 1011.5
20260507192527 53 298 1.7 3.5 0.00 0.00 0.00 71 1011.3
20260507191535 54 286 0.9 3.5 0.00 0.00 0.00 71 1011.3
20260507190522 54 302 1.7 3.5 0.00 0.00 0.00 70 1011.3
20260507185530 54 297 0.9 3.5 0.00 0.00 0.00 71 1011.2
20260507184538 53 282 0.9 2.6 0.00 0.00 0.00 72 1011.1
20260507183527 53 276 0.9 2.6 0.00 0.00 0.00 75 1011.2
20260507182535 53 313 0.0 0.9 0.00 0.00 0.00 75 1011.2
20260507181524 53 322 0.0 0.9 0.00 0.00 0.00 74 1011.2
20260507180533 53 301 0.0 0.9 0.00 0.00 0.00 73 1011.2
20260507175522 53 324 0.0 0.9 0.00 0.00 0.00 73 1011.3
20260507174532 54 325 0.0 0.9 0.00 0.00 0.00 74 1011.2
20260507173520 54 233 0.0 1.7 0.00 0.00 0.00 76 1011.3
20260507172529 54 0.0 0.0 0.00 0.00 0.00 76 1011.2
20260507171517 53 0.0 0.0 0.00 0.00 0.00 78 1011.4
20260507170526 51 0.0 0.0 0.00 0.00 0.00 80 1011.3
20260507165535 51 331 0.0 0.9 0.00 0.00 0.00 82 1011.4
20260507164523 51 0.0 0.0 0.00 0.00 0.00 82 1011.5